Volver al catálogo

ATLAS 5 CENTAUR DEB

ActivoHEO
NORAD 44644·DEBRIS·🇺🇸 United States

Lanzado Oct 17, 2018 desde Cape Canaveral Space Force Station

Loading…

Próximos Pases (próximas 24 horas)

TLE

ActualizadoSource: Space-Track

Época: Sep 14, 2026, 11:45 UTC

1 44644U 18079E   26257.48985554 -.00000150  00000-0  00000-0 0  9994
2 44644  13.2239  12.0751 4533605  14.9032 354.8608  1.94048454 52724

Sigue ATLAS 5 CENTAUR DEB en tiempo real con AllMySat

Download on the App Store